[[{"header":{"parameterUnit":"m.s-1","parameterCategory":1,"la1":30.2991,"la2":30.254,"lo1":-89.0895,"lo2":-89.0444,"dy":0.0017,"dx":0.0017,"nx":28,"ny":28,"refTime":"2023-09-16T21:00:00:Z","depth":0,"parameterNumber":2,"parameterNumberName":"U-component_of_WINDS"},"data":[0,0,0,0,0,0,0,0,0,0,0,0,0,0,0,0,0,0,0,0,0,0,0,0,0,0,0,0,0,0,0,0,0,0,0,0,0,0,0,0,0,0,0,0,0,0,0,0,0,0,0,0,0,0,0,0,0,0,1.9922,1.9923,0,1.9959,1.9959,1.996,1.9902,1.99,1.9898,1.9897,1.994,1.9943,1.9946,0,0,0,0,0,0,0,0,0,0,0,0,0,1.9809,1.9812,1.9922,1.9923,1.9923,1.9959,1.9959,1.996,1.9903,1.99,1.9898,1.9896,1.9939,1.9943,1.9946,0,0,0,0,0,0,0,0,0,0,0,0,0,1.9854,1.9812,1.9922,1.9899,1.9897,1.9959,1.9959,1.996,1.9903,1.99,1.9897,1.9894,1.9938,1.9942,1.9947,2.0035,0,0,1.9961,1.9963,0,0,0,0,0,0,0,0,1.9851,1.9858,1.9902,1.99,1.9899,1.9923,1.9935,1.9985,1.9904,1.9901,1.9896,1.9893,1.9937,1.9942,1.9955,2.0037,2.0039,1.9961,1.9964,1.9966,1.9967,0,0,0,0,0,0,0,1.9848,1.9856,1.9937,1.9903,1.9901,1.9889,1.9892,1.9945,1.9936,1.9901,1.9897,1.9902,1.9936,1.9951,1.9956,2.0039,1.9961,1.9965,1.9968,1.9969,2.0198,2.0201,0,0,0,0,0,0,1.9847,1.9854,1.9936,1.9938,1.9867,1.9893,1.9896,1.9918,1.9935,1.9934,1.9904,1.9899,1.9945,1.9951,1.9957,2.0063,1.9966,1.997,1.9972,2.0195,2.0199,2.0203,0,0,0,0,0,0,1.9845,1.9855,1.9934,1.9895,1.9904,1.9898,1.9923,1.9921,1.9936,1.9937,1.9936,1.9921,1.9943,1.9951,2.0016,2.0064,1.9972,1.9976,2.0191,2.0196,2.0201,2.0275,0,0,0,0,0,0,1.9842,1.9854,1.9886,1.9896,1.9906,1.9991,1.9926,1.9923,1.9943,1.9936,1.9953,1.9953,1.9941,2.001,2.0021,2.0068,1.998,2.0187,2.0193,2.0199,2.0268,2.0282,2.0294,0,0,0,0,0,1.9838,1.9906,1.9888,1.9898,1.9945,1.9994,2.0,1.9983,1.9947,1.998,1.9982,1.9952,2.0057,2.0017,2.0029,2.0079,2.0184,2.0191,2.0199,2.0263,2.0279,2.0293,0,0,0,0,0,0,1.9904,1.9907,1.9887,1.996,1.9977,1.9984,2.0025,2.0001,2.003,2.0023,2.0003,2.0007,2.0078,2.0084,2.004,2.0166,2.0114,2.0125,2.0159,2.0175,2.0187,2.0185,1.9983,0,0,0,0,0,1.9927,1.9964,1.9965,2.003,2.0039,2.0031,2.0051,2.0037,2.0054,2.0062,2.0068,2.0087,2.0125,2.015,2.0184,2.0269,2.0273,2.0309,2.0322,2.0332,2.0342,2.039,2.0407,2.0227,2.0227,2.0227,0,0,1.9975,1.9981,2.0006,2.0043,2.0054,2.0096,2.0037,2.0082,2.0113,2.0069,2.0131,2.0137,2.0158,2.0233,2.0267,2.0241,2.0392,2.0342,2.035,2.0354,2.0399,2.0416,2.0432,2.0232,2.0231,2.0231,0,0,2.0084,2.0091,2.0146,2.0159,2.0176,2.0171,2.0184,2.0195,2.0197,2.0258,2.0226,2.0264,2.0328,2.0345,2.0362,2.0479,2.0454,2.0491,2.0558,2.0605,2.0619,2.0631,2.0675,2.0691,2.05,2.0501,2.0501,0,2.0142,2.02,2.0178,2.0226,2.0245,2.0205,2.0263,2.0277,2.0305,2.032,2.029,2.0371,2.0383,2.0463,2.0492,2.0506,2.0523,2.049,2.0618,2.0631,2.0642,2.0684,2.07,2.0505,2.0505,2.0504,2.0504,0,2.0272,2.0313,2.0356,2.0383,2.0407,2.0459,2.0448,2.0475,2.0459,2.0457,2.0522,2.0534,2.0572,2.0589,2.0575,2.0669,2.0652,2.0621,2.0569,2.0664,2.0703,2.0719,2.0512,2.051,2.0509,2.0507,0,0,2.0423,2.0438,2.0455,2.0468,2.0485,2.0517,2.0569,2.0604,2.0628,2.065,2.0695,2.0751,2.0722,2.0742,2.0729,2.077,2.0865,2.0733,2.0734,2.0759,2.0972,2.0997,2.1016,2.0848,2.085,2.0853,2.0971,0,2.0533,2.062,2.0604,2.069,2.073,2.0693,2.0739,2.0756,2.0756,2.0792,2.0792,2.0833,2.0791,2.0803,2.0841,2.0845,2.0907,2.0836,2.0892,2.0894,2.0889,2.1036,2.1062,2.1173,2.0986,2.0988,2.099,0,2.0672,2.0698,2.0789,2.0801,2.0817,2.0858,2.089,2.0923,2.0943,2.094,2.0962,2.0942,2.0997,2.0943,2.102,2.0972,2.0994,2.0999,2.1003,2.1009,2.0949,2.1048,2.1207,2.1225,2.1014,2.1012,2.101,0,2.0777,2.0834,2.0896,2.0908,2.0923,2.0953,2.0962,2.0978,2.1001,2.1029,2.1044,2.1079,2.1099,2.1128,2.1119,2.108,2.1199,2.1143,2.1201,2.1201,2.1228,2.1227,2.1396,2.124,2.1239,2.1239,2.1239,0,2.0902,2.096,2.0943,2.0981,2.1046,2.1026,2.1091,2.1095,2.1111,2.1151,2.1122,2.1161,2.1146,2.1185,2.1178,2.1245,2.1253,2.1255,2.1253,2.1259,2.1259,2.1274,2.1267,2.1244,2.1243,2.1242,2.1241,0,2.103,2.102,2.1086,2.1095,2.1099,2.1146,2.1155,2.1193,2.119,2.1242,2.1254,2.1251,2.1296,2.1289,2.1339,2.1335,2.1418,2.1406,2.1411,2.1409,2.1468,2.1463,2.1654,2.1679,2.1505,2.1506,2.1508,0,2.1111,2.1154,2.1168,2.1192,2.1202,2.1242,2.1264,2.1248,2.1274,2.13,2.1335,2.1377,2.1409,2.1483,2.1487,2.1526,2.1516,2.158,2.1521,2.1527,2.1519,2.1518,2.1523,2.1592,2.1594,2.1596,2.1597,0,2.1257,2.1251,2.1284,2.1316,2.1344,2.1369,2.1391,2.1413,2.1399,2.143,2.1474,2.1499,2.155,2.1593,2.163,2.1641,2.1618,2.1615,2.1631,2.1638,2.164,2.1642,2.1445,2.1611,2.161,2.1609,2.1608,2.1607,2.1366,2.1403,2.1419,2.1458,2.1472,2.1494,2.153,2.1533,2.1569,2.1608,2.1596,2.1648,2.1668,2.1715,2.173,2.1772,2.1748,2.1771,2.1777,2.1783,2.1791,2.1632,2.1778,2.1778,2.1777,2.1777,2.1777,0,2.1513,2.1521,2.1556,2.1588,2.1619,2.1592,2.1616,2.1645,2.1689,2.171,2.1742,2.1795,2.1836,2.1844,2.1885,2.1917,2.1908,2.1928,2.1927,2.193,2.1808,2.1791,2.1935,2.1935,2.1935,2.1935,2.1935,2.1935,2.1593,2.1655,2.1651,2.1722,2.173,2.1779,2.1795,2.1817,2.1833,2.1892,2.1926,2.193,2.1946,2.1988,2.2026,2.2027,2.2045,2.207,2.2068,2.1954,2.1939,2.1924,2.1908,2.2074,2.2074,2.2187,2.2188,2.2189]},{"header":{"parameterUnit":"m.s-1","parameterCategory":1,"la1":30.2991,"la2":30.254,"lo1":-89.0895,"lo2":-89.0444,"dy":0.0017,"dx":0.0017,"nx":28,"ny":28,"refTime":"2023-09-16T21:00:00:Z","depth":0,"parameterNumber":3,"parameterNumberName":"V-component_of_WINDS"},"data":[0,0,0,0,0,0,0,0,0,0,0,0,0,0,0,0,0,0,0,0,0,0,0,0,0,0,0,0,0,0,0,0,0,0,0,0,0,0,0,0,0,0,0,0,0,0,0,0,0,0,0,0,0,0,0,0,0,0,-0.9293,-0.9294,0,-0.9343,-0.9344,-0.9344,-0.9465,-0.9468,-0.947,-0.9473,-0.952,-0.9519,-0.9518,0,0,0,0,0,0,0,0,0,0,0,0,0,-0.93,-0.9299,-0.9293,-0.9294,-0.9294,-0.9343,-0.9344,-0.9345,-0.9465,-0.9468,-0.9471,-0.9474,-0.952,-0.9519,-0.9518,0,0,0,0,0,0,0,0,0,0,0,0,0,-0.9318,-0.9299,-0.9293,-0.936,-0.9367,-0.9343,-0.9344,-0.9345,-0.9464,-0.9468,-0.9472,-0.9475,-0.9521,-0.9519,-0.9518,-0.9431,0,0,-0.9513,-0.9512,0,0,0,0,0,0,0,0,-0.9317,-0.9318,-0.935,-0.9356,-0.9363,-0.9402,-0.9364,-0.9374,-0.9463,-0.9427,-0.9473,-0.9477,-0.9477,-0.948,-0.948,-0.9433,-0.9435,-0.9512,-0.9511,-0.9511,-0.951,0,0,0,0,0,0,0,-0.9315,-0.9316,-0.9313,-0.935,-0.9358,-0.9388,-0.9394,-0.9366,-0.943,-0.943,-0.9439,-0.9444,-0.9482,-0.9482,-0.9482,-0.9436,-0.9512,-0.9511,-0.951,-0.9509,-0.9324,-0.932,0,0,0,0,0,0,-0.9305,-0.9314,-0.9311,-0.9314,-0.9349,-0.9384,-0.9392,-0.9386,-0.9431,-0.9441,-0.9441,-0.9449,-0.9483,-0.9484,-0.9485,-0.9389,-0.9511,-0.9509,-0.9508,-0.9328,-0.9323,-0.9319,0,0,0,0,0,0,-0.9304,-0.9303,-0.9309,-0.9317,-0.932,-0.938,-0.9372,-0.9384,-0.9385,-0.9439,-0.945,-0.9429,-0.9486,-0.9487,-0.9445,-0.9392,-0.9508,-0.9507,-0.9332,-0.9326,-0.9321,-0.9195,0,0,0,0,0,0,-0.9304,-0.9303,-0.9271,-0.9315,-0.9319,-0.9268,-0.9369,-0.9383,-0.9382,-0.9394,-0.9431,-0.944,-0.9489,-0.9446,-0.9443,-0.9392,-0.9506,-0.9337,-0.933,-0.9323,-0.9204,-0.9185,-0.9169,0,0,0,0,0,-0.9304,-0.9232,-0.9268,-0.9267,-0.9281,-0.9265,-0.9267,-0.9326,-0.9377,-0.9346,-0.9381,-0.9439,-0.9398,-0.9441,-0.9438,-0.9386,-0.9341,-0.9332,-0.9323,-0.9212,-0.9189,-0.917,0,0,0,0,0,0,-0.9177,-0.9239,-0.928,-0.922,-0.9237,-0.9286,-0.9248,-0.9299,-0.93,-0.9311,-0.9383,-0.939,-0.9338,-0.9358,-0.9404,-0.9306,-0.9379,-0.9369,-0.9295,-0.9274,-0.9257,-0.9254,-0.9504,0,0,0,0,0,-0.9143,-0.9126,-0.918,-0.9122,-0.9129,-0.9186,-0.9182,-0.9226,-0.9245,-0.9252,-0.9284,-0.93,-0.9291,-0.9284,-0.9278,-0.9207,-0.9218,-0.917,-0.9153,-0.9138,-0.9129,-0.9096,-0.9076,-0.929,-0.929,-0.929,0,0,-0.907,-0.9102,-0.9087,-0.9098,-0.9116,-0.9097,-0.9191,-0.9167,-0.9154,-0.9248,-0.9212,-0.9235,-0.9257,-0.9201,-0.9178,-0.9216,-0.9072,-0.9127,-0.9115,-0.9114,-0.9084,-0.9064,-0.9046,-0.9284,-0.9285,-0.9286,0,0,-0.893,-0.8951,-0.8907,-0.8924,-0.8951,-0.899,-0.8979,-0.9021,-0.9041,-0.9005,-0.9076,-0.9061,-0.9043,-0.9058,-0.9062,-0.8929,-0.8984,-0.8925,-0.8835,-0.8802,-0.8785,-0.877,-0.8725,-0.8708,-0.8916,-0.8915,-0.8915,0,-0.8837,-0.8812,-0.8877,-0.8849,-0.8852,-0.8939,-0.8895,-0.8907,-0.893,-0.893,-0.8972,-0.8954,-0.8975,-0.8925,-0.8893,-0.8893,-0.8883,-0.8922,-0.8782,-0.8768,-0.8756,-0.8713,-0.8696,-0.8908,-0.8909,-0.891,-0.891,0,-0.8697,-0.8679,-0.8639,-0.8662,-0.8661,-0.8624,-0.8683,-0.8674,-0.8718,-0.8753,-0.8716,-0.8745,-0.8748,-0.8739,-0.878,-0.8694,-0.8718,-0.877,-0.8845,-0.8727,-0.8689,-0.8673,-0.8898,-0.8901,-0.8903,-0.8904,0,0,-0.8478,-0.8539,-0.8523,-0.8536,-0.8572,-0.8559,-0.8527,-0.8532,-0.8524,-0.8536,-0.8512,-0.8496,-0.8546,-0.8551,-0.8595,-0.8565,-0.8461,-0.8622,-0.8624,-0.8593,-0.8371,-0.8333,-0.8313,-0.8497,-0.8494,-0.8492,-0.837,0,-0.8348,-0.8298,-0.8356,-0.8294,-0.8279,-0.8362,-0.8334,-0.8353,-0.8385,-0.8377,-0.8411,-0.84,-0.8465,-0.8469,-0.8444,-0.8479,-0.8418,-0.8488,-0.8476,-0.8475,-0.8469,-0.8292,-0.8251,-0.8134,-0.8355,-0.8352,-0.835,0,-0.8189,-0.8198,-0.8134,-0.8178,-0.8173,-0.8147,-0.8158,-0.8148,-0.8172,-0.8198,-0.8205,-0.8259,-0.823,-0.8303,-0.8265,-0.8312,-0.8311,-0.8327,-0.8324,-0.8327,-0.8406,-0.8291,-0.8098,-0.8081,-0.8327,-0.8329,-0.833,0,-0.8039,-0.8033,-0.7996,-0.8003,-0.8052,-0.8033,-0.8052,-0.808,-0.808,-0.8088,-0.8089,-0.8093,-0.8095,-0.8097,-0.8151,-0.8199,-0.8108,-0.8184,-0.8129,-0.8128,-0.8107,-0.8108,-0.7913,-0.8102,-0.8103,-0.8103,-0.8103,0,-0.7888,-0.7847,-0.7929,-0.7906,-0.7862,-0.793,-0.7884,-0.7912,-0.7936,-0.792,-0.7991,-0.7974,-0.8045,-0.8036,-0.8077,-0.8041,-0.8041,-0.8061,-0.8073,-0.8056,-0.8054,-0.8057,-0.8067,-0.8099,-0.81,-0.81,-0.8101,0,-0.7713,-0.7767,-0.7732,-0.7781,-0.7793,-0.7759,-0.7802,-0.7782,-0.7819,-0.7798,-0.7796,-0.7854,-0.7847,-0.7901,-0.7903,-0.7931,-0.7876,-0.7901,-0.7868,-0.7877,-0.782,-0.7825,-0.7621,-0.7599,-0.78,-0.7798,-0.7796,0,-0.7615,-0.7586,-0.7633,-0.7628,-0.7644,-0.7635,-0.7636,-0.7701,-0.7699,-0.7725,-0.7703,-0.7702,-0.7705,-0.769,-0.7732,-0.7734,-0.7761,-0.7689,-0.7762,-0.7746,-0.7763,-0.7765,-0.7763,-0.7675,-0.7672,-0.767,-0.7668,0,-0.7435,-0.7464,-0.7463,-0.7472,-0.7472,-0.7482,-0.7496,-0.7487,-0.7558,-0.7552,-0.7547,-0.7549,-0.7553,-0.7552,-0.7563,-0.7583,-0.7637,-0.7645,-0.7633,-0.7616,-0.76,-0.761,-0.7829,-0.765,-0.7652,-0.7653,-0.7654,-0.7655,-0.7297,-0.7276,-0.7307,-0.7305,-0.7323,-0.7335,-0.732,-0.7356,-0.7353,-0.7363,-0.7401,-0.7389,-0.7415,-0.7437,-0.7451,-0.7443,-0.7478,-0.7459,-0.7455,-0.745,-0.7441,-0.7599,-0.7445,-0.7446,-0.7446,-0.7447,-0.7447,0,-0.7124,-0.7148,-0.7145,-0.7165,-0.7163,-0.7215,-0.7234,-0.7229,-0.7219,-0.7239,-0.7241,-0.7236,-0.7236,-0.7278,-0.7283,-0.7268,-0.7294,-0.7268,-0.727,-0.7274,-0.7408,-0.742,-0.7247,-0.7247,-0.7247,-0.7247,-0.7247,-0.7247,-0.7033,-0.7001,-0.7033,-0.7011,-0.7035,-0.7026,-0.7033,-0.7044,-0.7062,-0.7053,-0.7054,-0.7082,-0.7112,-0.712,-0.7122,-0.7134,-0.7134,-0.7099,-0.712,-0.7245,-0.7264,-0.7283,-0.7294,-0.7098,-0.7098,-0.6988,-0.6987,-0.6986]}]]